Location: ??
(35.5090°N, 139.6783°E)
Time: 01:30:37
(UTC+00:00)

Cosmos 1833 Rocket - Pass Details

Date: 08 November 2025
Orbit: 829 x 840 km, 71.0° (Epoch: 09 December)

Event Time Altitude Azimuth Distance (km) Brightness Sun altitude
Rises 09:05:09 0° 347° (NNW) 3,399 5.9 -17.6°
Reaches altitude 10° 09:07:50 10° 357° (N) 2,461 5.1 -18.1°
Maximum altitude 09:12:56 34° 62° (ENE) 1,346 3.2 -19.2°
Enters shadow 09:13:15 34° 69° (ENE) 1,352 3.2 -19.2°
